Dades meteomassalio
Diari Summary for Gener 8, 2017 Units:  Metric    English   Both
« Previous Day
Next Day »
Diari Semanal Mensual Anual Personalitzat
  Maxima: Minima: Mijana:
Temperatura: 11.9 °C -3.9 °C 2.8 °C
Rosada: 3.2 °C -7.3 °C -3.9 °C
Humitat: 84 % 28 % 65 %
Velocitat del vent: 0.0 km/h 0.0 km/h 0 km/h
Racha vent: 0.0 km/h - -
Vent:- - North
Pressio: 1034.1 hPa 1027.7 hPa -
Pluja: 0.0 mm    
Historical Graphs
 
 
Tabular Data for Gener 8, 2017
Time Temperature Dew Point Pressure Wind Wind Speed Wind Gust Humidity Rainfall Rate (Hourly) solar Conditions
00:04 -2.1 °C -4.8 °C 1034.1 hPa Calm     82 % 0.0 mm 0.0 W/m2 CLR
00:09 -2.2 °C -4.9 °C 1034.1 hPa Calm     82 % 0.0 mm 0.0 W/m2 CLR
00:14 -2.3 °C -5.0 °C 1034.1 hPa Calm     82 % 0.0 mm 0.0 W/m2 CLR
00:19 -2.4 °C -4.9 °C 1033.7 hPa Calm     83 % 0.0 mm 0.0 W/m2 CLR
00:24 -2.4 °C -4.9 °C 1033.7 hPa Calm     83 % 0.0 mm 0.0 W/m2 CLR
00:29 -2.4 °C -4.9 °C 1034.1 hPa Calm     83 % 0.0 mm 0.0 W/m2 CLR
00:34 -2.6 °C -5.1 °C 1033.7 hPa Calm     83 % 0.0 mm 0.0 W/m2 CLR
00:39 -2.5 °C -4.8 °C 1033.7 hPa Calm     84 % 0.0 mm 0.0 W/m2 CLR
00:44 -2.3 °C -4.8 °C 1033.7 hPa Calm     83 % 0.0 mm 0.0 W/m2 CLR
00:49 -2.2 °C -4.9 °C 1033.7 hPa Calm     82 % 0.0 mm 0.0 W/m2 CLR
00:54 -2.2 °C -4.9 °C 1033.7 hPa Calm     82 % 0.0 mm 0.0 W/m2 CLR
00:59 -2.3 °C -4.9 °C 1033.7 hPa Calm     82 % 0.0 mm 0.0 W/m2 CLR
01:04 -2.4 °C -5.1 °C 1033.7 hPa Calm     82 % 0.0 mm 0.0 W/m2 CLR
01:09 -2.6 °C -5.2 °C 1033.7 hPa Calm     82 % 0.0 mm 0.0 W/m2 CLR
01:14 -2.5 °C -5.0 °C 1033.7 hPa Calm     83 % 0.0 mm 0.0 W/m2 CLR
01:19 -2.5 °C -5.2 °C 1033.7 hPa Calm     82 % 0.0 mm 0.0 W/m2 CLR
01:24 -2.5 °C -5.0 °C 1033.4 hPa Calm     83 % 0.0 mm 0.0 W/m2 CLR
01:29 -2.5 °C -5.2 °C 1033.4 hPa Calm     82 % 0.0 mm 0.0 W/m2 CLR
01:34 -2.5 °C -5.2 °C 1033.4 hPa Calm     82 % 0.0 mm 0.0 W/m2 CLR
01:39 -2.4 °C -5.1 °C 1033.4 hPa Calm     82 % 0.0 mm 0.0 W/m2 CLR
01:44 -2.4 °C -5.1 °C 1033.4 hPa Calm     82 % 0.0 mm 0.0 W/m2 CLR
01:49 -2.4 °C -5.3 °C 1033.4 hPa Calm     81 % 0.0 mm 0.0 W/m2 CLR
01:54 -2.4 °C -5.2 °C 1033.4 hPa Calm     81 % 0.0 mm 0.0 W/m2 CLR
01:59 -2.3 °C -5.2 °C 1033.4 hPa Calm     81 % 0.0 mm 0.0 W/m2 CLR
02:04 -2.3 °C -5.3 °C 1033.4 hPa Calm     80 % 0.0 mm 0.0 W/m2 CLR
02:09 -2.3 °C -5.3 °C 1033.4 hPa Calm     80 % 0.0 mm 0.0 W/m2 CLR
02:14 -2.4 °C -5.4 °C 1033.4 hPa Calm     80 % 0.0 mm 0.0 W/m2 CLR
02:19 -2.3 °C -5.3 °C 1033.4 hPa Calm     80 % 0.0 mm 0.0 W/m2 CLR
02:24 -2.4 °C -5.4 °C 1033.4 hPa Calm     80 % 0.0 mm 0.0 W/m2 CLR
02:29 -2.4 °C -5.4 °C 1033.4 hPa Calm     80 % 0.0 mm 0.0 W/m2 CLR
02:34 -2.4 °C -5.3 °C 1033.4 hPa Calm     81 % 0.0 mm 0.0 W/m2 CLR
02:39 -2.5 °C -5.3 °C 1033.4 hPa Calm     81 % 0.0 mm 0.0 W/m2 CLR
02:44 -2.4 °C -5.3 °C 1033.4 hPa Calm     81 % 0.0 mm 0.0 W/m2 CLR
02:49 -2.4 °C -5.3 °C 1033.4 hPa Calm     81 % 0.0 mm 0.0 W/m2 CLR
02:54 -2.6 °C -5.4 °C 1033.4 hPa Calm     81 % 0.0 mm 0.0 W/m2 CLR
02:59 -2.7 °C -5.5 °C 1033.4 hPa Calm     81 % 0.0 mm 0.0 W/m2 CLR
03:04 -2.6 °C -5.4 °C 1033.4 hPa Calm     81 % 0.0 mm 0.0 W/m2 CLR
03:09 -2.4 °C -5.4 °C 1033.4 hPa Calm     80 % 0.0 mm 0.0 W/m2 CLR
03:14 -2.4 °C -5.4 °C 1033.4 hPa Calm     80 % 0.0 mm 0.0 W/m2 CLR
03:19 -2.5 °C -5.5 °C 1033.4 hPa Calm     80 % 0.0 mm 0.0 W/m2 CLR
03:24 -2.5 °C -5.5 °C 1033.4 hPa Calm     80 % 0.0 mm 0.0 W/m2 CLR
03:29 -2.6 °C -5.6 °C 1033.4 hPa Calm     80 % 0.0 mm 0.0 W/m2 CLR
03:34 -2.6 °C -5.6 °C 1033.4 hPa Calm     80 % 0.0 mm 0.0 W/m2 CLR
03:39 -2.7 °C -5.5 °C 1033.4 hPa Calm     81 % 0.0 mm 0.0 W/m2 CLR
03:44 -2.8 °C -5.6 °C 1033.4 hPa Calm     81 % 0.0 mm 0.0 W/m2 CLR
03:49 -2.7 °C -5.5 °C 1033.1 hPa Calm     81 % 0.0 mm 0.0 W/m2 CLR
03:54 -2.4 °C -5.4 °C 1033.1 hPa Calm     80 % 0.0 mm 0.0 W/m2 CLR
03:59 -2.4 °C -5.6 °C 1033.1 hPa Calm     79 % 0.0 mm 0.0 W/m2 CLR
04:04 -2.7 °C -5.7 °C 1033.1 hPa Calm     80 % 0.0 mm 0.0 W/m2 CLR
04:09 -2.9 °C -5.7 °C 1033.1 hPa Calm     81 % 0.0 mm 0.0 W/m2 CLR
04:14 -3.0 °C -5.7 °C 1033.1 hPa Calm     82 % 0.0 mm 0.0 W/m2 CLR
04:19 -3.2 °C -5.8 °C 1033.1 hPa Calm     82 % 0.0 mm 0.0 W/m2 CLR
04:25 -3.1 °C -5.6 °C 1033.1 hPa Calm     83 % 0.0 mm 0.0 W/m2 CLR
04:30 -3.1 °C -5.7 °C 1033.1 hPa Calm     82 % 0.0 mm 0.0 W/m2 CLR
04:35 -3.0 °C -5.7 °C 1033.1 hPa Calm     82 % 0.0 mm 0.0 W/m2 CLR
04:40 -2.8 °C -5.7 °C 1033.1 hPa Calm     81 % 0.0 mm 0.0 W/m2 CLR
04:45 -2.8 °C -5.6 °C 1033.1 hPa Calm     81 % 0.0 mm 0.0 W/m2 CLR
04:50 -2.8 °C -5.7 °C 1033.1 hPa Calm     81 % 0.0 mm 0.0 W/m2 CLR
04:55 -2.9 °C -5.7 °C 1033.1 hPa Calm     81 % 0.0 mm 0.0 W/m2 CLR
05:00 -3.0 °C -5.8 °C 1033.1 hPa Calm     81 % 0.0 mm 0.0 W/m2 CLR
05:05 -3.0 °C -5.8 °C 1033.1 hPa Calm     81 % 0.0 mm 0.0 W/m2 CLR
05:10 -2.9 °C -5.7 °C 1033.1 hPa Calm     81 % 0.0 mm 0.0 W/m2 CLR
05:15 -2.9 °C -5.7 °C 1033.1 hPa Calm     81 % 0.0 mm 0.0 W/m2 CLR
05:20 -3.1 °C -5.9 °C 1033.1 hPa Calm     81 % 0.0 mm 0.0 W/m2 CLR
05:25 -3.4 °C -6.0 °C 1033.1 hPa Calm     82 % 0.0 mm 0.0 W/m2 CLR
05:30 -3.6 °C -6.0 °C 1032.7 hPa Calm     83 % 0.0 mm 0.0 W/m2 CLR
05:35 -3.7 °C -6.0 °C 1032.7 hPa Calm     84 % 0.0 mm 0.0 W/m2 CLR
05:40 -3.6 °C -5.9 °C 1032.7 hPa Calm     84 % 0.0 mm 0.0 W/m2 CLR
05:45 -3.4 °C -5.7 °C 1032.7 hPa Calm     84 % 0.0 mm 0.0 W/m2 CLR
05:50 -3.3 °C -5.8 °C 1032.7 hPa Calm     83 % 0.0 mm 0.0 W/m2 CLR
05:55 -3.2 °C -5.7 °C 1032.7 hPa Calm     83 % 0.0 mm 0.0 W/m2 CLR
06:00 -3.2 °C -5.7 °C 1032.7 hPa Calm     83 % 0.0 mm 0.0 W/m2 CLR
06:05 -3.1 °C -5.7 °C 1032.7 hPa Calm     82 % 0.0 mm 0.0 W/m2 CLR
06:10 -3.2 °C -5.8 °C 1032.7 hPa Calm     82 % 0.0 mm 0.0 W/m2 CLR
06:15 -3.2 °C -5.8 °C 1032.7 hPa Calm     82 % 0.0 mm 0.0 W/m2 CLR
06:20 -3.3 °C -5.9 °C 1032.7 hPa Calm     82 % 0.0 mm 0.0 W/m2 CLR
06:25 -3.2 °C -5.8 °C 1032.7 hPa Calm     82 % 0.0 mm 0.0 W/m2 CLR
06:30 -3.2 °C -5.7 °C 1032.7 hPa Calm     83 % 0.0 mm 0.0 W/m2 CLR
06:35 -2.8 °C -5.7 °C 1032.7 hPa Calm     81 % 0.0 mm 0.0 W/m2 CLR
06:40 -2.8 °C -5.8 °C 1032.7 hPa Calm     80 % 0.0 mm 0.0 W/m2 CLR
06:45 -2.9 °C -5.9 °C 1032.7 hPa Calm     80 % 0.0 mm 0.0 W/m2 CLR
06:50 -2.9 °C -5.9 °C 1032.7 hPa Calm     80 % 0.0 mm 0.0 W/m2 CLR
06:55 -3.0 °C -5.9 °C 1032.7 hPa Calm     80 % 0.0 mm 0.0 W/m2 CLR
07:00 -3.0 °C -5.9 °C 1032.7 hPa Calm     80 % 0.0 mm 0.0 W/m2 CLR
07:05 -2.9 °C -5.8 °C 1032.7 hPa Calm     80 % 0.0 mm 0.0 W/m2 CLR
07:10 -2.9 °C -5.8 °C 1032.7 hPa Calm     80 % 0.0 mm 0.0 W/m2 CLR
07:15 -2.9 °C -5.8 °C 1032.7 hPa Calm     80 % 0.0 mm 0.0 W/m2 CLR
07:20 -2.9 °C -5.8 °C 1032.7 hPa Calm     80 % 0.0 mm 0.0 W/m2 CLR
07:25 -3.1 °C -6.0 °C 1032.7 hPa Calm     80 % 0.0 mm 0.0 W/m2 CLR
07:30 -3.3 °C -6.1 °C 1032.7 hPa Calm     81 % 0.0 mm 0.0 W/m2 CLR
07:35 -3.4 °C -6.1 °C 1032.7 hPa Calm     82 % 0.0 mm 0.0 W/m2 CLR
07:40 -3.6 °C -6.2 °C 1032.7 hPa Calm     82 % 0.0 mm 0.0 W/m2 CLR
07:45 -3.6 °C -6.0 °C 1032.7 hPa Calm     83 % 0.0 mm 0.0 W/m2 CLR
07:50 -3.4 °C -6.0 °C 1032.7 hPa Calm     82 % 0.0 mm 0.0 W/m2 CLR
07:55 -3.3 °C -5.9 °C 1032.7 hPa Calm     82 % 0.0 mm 0.0 W/m2 CLR
08:00 -3.4 °C -6.0 °C 1032.7 hPa Calm     82 % 0.0 mm 0.0 W/m2 CLR
08:05 -3.5 °C -6.1 °C 1032.7 hPa Calm     82 % 0.0 mm 0.0 W/m2 CLR
08:10 -3.7 °C -6.1 °C 1032.7 hPa Calm     83 % 0.0 mm 0.0 W/m2 CLR
08:15 -3.7 °C -6.2 °C 1032.7 hPa Calm     83 % 0.0 mm 0.0 W/m2 CLR
08:20 -3.8 °C -6.2 °C 1032.7 hPa Calm     83 % 0.0 mm 0.0 W/m2 CLR
08:25 -3.9 °C -6.2 °C 1032.7 hPa Calm     84 % 0.0 mm 5.0 W/m2 BKN
08:30 -3.8 °C -6.2 °C 1032.7 hPa Calm     84 % 0.0 mm 7.0 W/m2 BKN
08:35 -3.7 °C -6.1 °C 1032.7 hPa Calm     84 % 0.0 mm 11.0 W/m2 BKN
08:40 -3.7 °C -6.0 °C 1032.7 hPa Calm     84 % 0.0 mm 12.0 W/m2 BKN
08:45 -3.4 °C -5.9 °C 1032.7 hPa Calm     83 % 0.0 mm 16.0 W/m2 BKN
08:50 -3.2 °C -5.7 °C 1032.7 hPa Calm     83 % 0.0 mm 18.0 W/m2 BKN
08:55 -2.9 °C -5.7 °C 1033.1 hPa Calm     81 % 0.0 mm 21.0 W/m2 BKN
09:00 -2.8 °C -5.6 °C 1033.1 hPa Calm     81 % 0.0 mm 26.0 W/m2 BKN
09:05 -2.9 °C -5.7 °C 1033.1 hPa Calm     81 % 0.0 mm 33.0 W/m2 BKN
09:10 -2.7 °C -5.3 °C 1033.1 hPa Calm     82 % 0.0 mm 42.0 W/m2 BKN
09:15 -2.4 °C -5.2 °C 1033.1 hPa Calm     81 % 0.0 mm 53.0 W/m2 BKN
09:20 -2.3 °C -5.3 °C 1033.1 hPa Calm     80 % 0.0 mm 62.0 W/m2 BKN
09:25 -2.2 °C -5.3 °C 1033.1 hPa Calm     79 % 0.0 mm 67.0 W/m2 BKN
09:30 -1.9 °C -4.9 °C 1033.1 hPa Calm     80 % 0.0 mm 72.0 W/m2 BKN
09:35 -1.5 °C -4.5 °C 1033.1 hPa Calm     80 % 0.0 mm 77.0 W/m2 BKN
09:40 -1.2 °C -4.2 °C 1033.1 hPa Calm     80 % 0.0 mm 113.0 W/m2 BKN
09:45 -0.9 °C -4.2 °C 1033.1 hPa Calm     78 % 0.0 mm 125.0 W/m2 BKN
09:50 -0.6 °C -4.2 °C 1033.1 hPa Calm     77 % 0.0 mm 123.0 W/m2 BKN
09:55 -0.3 °C -4.2 °C 1033.1 hPa Calm     75 % 0.0 mm 155.0 W/m2 BKN
10:00 0.1 °C -4.0 °C 1033.1 hPa Calm     74 % 0.0 mm 169.0 W/m2 BKN
10:05 0.5 °C -3.9 °C 1033.1 hPa Calm     72 % 0.0 mm 162.0 W/m2 SCT
10:10 0.7 °C -3.9 °C 1033.1 hPa Calm     71 % 0.0 mm 197.0 W/m2 BKN
10:15 1.0 °C -3.7 °C 1033.1 hPa Calm     71 % 0.0 mm 130.0 W/m2 BKN
10:20 1.4 °C -3.2 °C 1033.1 hPa Calm     71 % 0.0 mm 221.0 W/m2 SCT
10:25 1.9 °C -3.0 °C 1033.1 hPa Calm     70 % 0.0 mm 234.0 W/m2 SCT
10:30 2.6 °C -2.6 °C 1032.7 hPa Calm     69 % 0.0 mm 250.0 W/m2 SCT
10:35 3.2 °C -2.6 °C 1032.7 hPa Calm     66 % 0.0 mm 262.0 W/m2 SCT
10:40 3.7 °C -2.7 °C 1032.7 hPa Calm     63 % 0.0 mm 272.0 W/m2 SCT
10:45 4.2 °C -2.9 °C 1032.7 hPa Calm     60 % 0.0 mm 281.0 W/m2 SCT
10:50 4.6 °C -2.9 °C 1032.7 hPa Calm     58 % 0.0 mm 290.0 W/m2 SCT
10:55 5.1 °C -2.8 °C 1032.7 hPa Calm     57 % 0.0 mm 302.0 W/m2 SCT
11:01 5.5 °C -2.8 °C 1032.7 hPa Calm     55 % 0.0 mm 311.0 W/m2 SCT
11:06 5.7 °C -2.9 °C 1032.7 hPa Calm     54 % 0.0 mm 320.0 W/m2 FEW
11:11 5.8 °C -2.8 °C 1032.7 hPa Calm     54 % 0.0 mm 325.0 W/m2 FEW
11:16 6.2 °C -2.9 °C 1032.7 hPa Calm     52 % 0.0 mm 336.0 W/m2 FEW
11:21 6.4 °C -3.0 °C 1032.7 hPa Calm     51 % 0.0 mm 346.0 W/m2 FEW
11:26 6.7 °C -2.5 °C 1032.4 hPa Calm     52 % 0.0 mm 352.0 W/m2 FEW
11:31 7.1 °C -2.4 °C 1032.4 hPa Calm     51 % 0.0 mm 359.0 W/m2 FEW
11:36 7.4 °C -2.9 °C 1032.1 hPa Calm     48 % 0.0 mm 366.0 W/m2 FEW
11:41 8.1 °C -2.3 °C 1032.1 hPa Calm     48 % 0.0 mm 374.0 W/m2 FEW
11:46 8.8 °C -4.1 °C 1031.7 hPa Calm     40 % 0.0 mm 381.0 W/m2 FEW
11:51 9.5 °C -6.0 °C 1031.7 hPa Calm     33 % 0.0 mm 387.0 W/m2 FEW
11:56 9.8 °C -6.1 °C 1031.7 hPa Calm     32 % 0.0 mm 392.0 W/m2 FEW
12:01 10.0 °C -5.6 °C 1031.7 hPa Calm     33 % 0.0 mm 399.0 W/m2 FEW
12:06 9.9 °C -6.0 °C 1031.4 hPa Calm     32 % 0.0 mm 404.0 W/m2 FEW
12:11 10.1 °C -6.7 °C 1031.4 hPa Calm     30 % 0.0 mm 410.0 W/m2 FEW
12:16 10.3 °C -6.5 °C 1031.0 hPa Calm     30 % 0.0 mm 413.0 W/m2 CLR
12:21 10.5 °C -6.8 °C 1031.0 hPa Calm     29 % 0.0 mm 417.0 W/m2 CLR
12:26 10.4 °C -6.9 °C 1031.0 hPa Calm     29 % 0.0 mm 418.0 W/m2 CLR
12:31 10.5 °C -7.3 °C 1030.7 hPa Calm     28 % 0.0 mm 422.0 W/m2 CLR
12:36 10.7 °C -6.6 °C 1030.7 hPa Calm     29 % 0.0 mm 425.0 W/m2 CLR
12:41 10.6 °C -6.7 °C 1030.7 hPa Calm     29 % 0.0 mm 427.0 W/m2 CLR
12:46 10.5 °C -6.8 °C 1030.7 hPa Calm     29 % 0.0 mm 432.0 W/m2 CLR
12:51 10.6 °C -7.2 °C 1030.4 hPa Calm     28 % 0.0 mm 436.0 W/m2 CLR
12:56 10.6 °C -6.3 °C 1030.4 hPa Calm     30 % 0.0 mm 436.0 W/m2 CLR
13:01 10.6 °C -6.8 °C 1030.4 hPa Calm     29 % 0.0 mm 434.0 W/m2 CLR
13:06 10.6 °C -6.3 °C 1030.4 hPa Calm     30 % 0.0 mm 436.0 W/m2 CLR
13:11 10.6 °C -5.9 °C 1030.0 hPa Calm     31 % 0.0 mm 439.0 W/m2 CLR
13:16 10.7 °C -6.6 °C 1030.0 hPa Calm     29 % 0.0 mm 434.0 W/m2 CLR
13:21 10.9 °C -6.1 °C 1030.0 hPa Calm     30 % 0.0 mm 438.0 W/m2 CLR
13:26 10.9 °C -6.1 °C 1030.0 hPa Calm     30 % 0.0 mm 434.0 W/m2 CLR
13:31 10.8 °C -6.6 °C 1029.7 hPa Calm     29 % 0.0 mm 432.0 W/m2 CLR
13:36 10.8 °C -6.1 °C 1029.7 hPa Calm     30 % 0.0 mm 429.0 W/m2 CLR
13:41 10.9 °C -6.0 °C 1029.7 hPa Calm     30 % 0.0 mm 427.0 W/m2 CLR
13:46 11.1 °C -5.4 °C 1029.7 hPa Calm     31 % 0.0 mm 427.0 W/m2 CLR
13:51 11.1 °C -6.3 °C 1029.3 hPa Calm     29 % 0.0 mm 422.0 W/m2 CLR
13:56 11.2 °C -5.7 °C 1029.3 hPa Calm     30 % 0.0 mm 418.0 W/m2 CLR
14:01 11.4 °C -6.1 °C 1029.3 hPa Calm     29 % 0.0 mm 415.0 W/m2 CLR
14:06 11.3 °C -5.7 °C 1029.0 hPa Calm     30 % 0.0 mm 411.0 W/m2 CLR
14:25 11.3 °C -5.7 °C 1029.0 hPa Calm     30 % 0.0 mm 396.0 W/m2 CLR
14:47 11.3 °C -4.8 °C 1028.7 hPa Calm     32 % 0.0 mm 369.0 W/m2 CLR
15:29 11.8 °C -4.8 °C 1028.3 hPa Calm     31 % 0.0 mm 292.0 W/m2 CLR
15:35 11.9 °C -4.3 °C 1028.3 hPa Calm     32 % 0.0 mm 281.0 W/m2 CLR
15:40 11.9 °C -4.3 °C 1028.3 hPa Calm     32 % 0.0 mm 271.0 W/m2 CLR
15:45 11.8 °C -4.4 °C 1028.0 hPa Calm     32 % 0.0 mm 260.0 W/m2 CLR
15:50 11.7 °C -4.5 °C 1028.0 hPa Calm     32 % 0.0 mm 243.0 W/m2 CLR
15:55 11.6 °C -3.7 °C 1028.0 hPa Calm     34 % 0.0 mm 230.0 W/m2 CLR
16:00 11.6 °C -3.4 °C 1028.0 hPa Calm     35 % 0.0 mm 220.0 W/m2 CLR
16:05 11.4 °C -3.6 °C 1028.0 hPa Calm     35 % 0.0 mm 204.0 W/m2 CLR
16:10 11.1 °C -3.1 °C 1028.0 hPa Calm     37 % 0.0 mm 190.0 W/m2 CLR
16:15 10.7 °C -3.1 °C 1028.3 hPa Calm     38 % 0.0 mm 178.0 W/m2 CLR
16:20 10.5 °C -3.2 °C 1028.3 hPa Calm     38 % 0.0 mm 165.0 W/m2 CLR
16:25 10.4 °C -3.0 °C 1028.3 hPa Calm     39 % 0.0 mm 151.0 W/m2 CLR
16:30 10.4 °C -3.3 °C 1028.3 hPa Calm     38 % 0.0 mm 141.0 W/m2 CLR
16:35 10.4 °C -3.3 °C 1028.3 hPa Calm     38 % 0.0 mm 127.0 W/m2 CLR
16:40 10.3 °C -3.4 °C 1028.3 hPa Calm     38 % 0.0 mm 114.0 W/m2 CLR
16:45 10.4 °C -3.3 °C 1028.3 hPa Calm     38 % 0.0 mm 102.0 W/m2 CLR
16:50 10.3 °C -3.4 °C 1028.3 hPa Calm     38 % 0.0 mm 90.0 W/m2 CLR
16:55 10.3 °C -3.4 °C 1028.0 hPa Calm     38 % 0.0 mm 69.0 W/m2 CLR
17:00 10.4 °C -3.7 °C 1028.0 hPa Calm     37 % 0.0 mm 60.0 W/m2 CLR
17:05 10.4 °C -3.7 °C 1028.0 hPa Calm     37 % 0.0 mm 58.0 W/m2 OVC
17:10 10.4 °C -3.7 °C 1028.0 hPa Calm     37 % 0.0 mm 46.0 W/m2 OVC
17:15 10.2 °C -3.5 °C 1028.0 hPa Calm     38 % 0.0 mm 39.0 W/m2 OVC
17:20 10.2 °C -3.2 °C 1028.0 hPa Calm     39 % 0.0 mm 32.0 W/m2 OVC
17:25 10.1 °C -3.3 °C 1028.0 hPa Calm     39 % 0.0 mm 26.0 W/m2 OVC
17:30 9.8 °C -2.8 °C 1028.0 hPa Calm     41 % 0.0 mm 23.0 W/m2 OVC
17:35 9.4 °C -2.5 °C 1028.0 hPa Calm     43 % 0.0 mm 19.0 W/m2 OVC
17:40 8.9 °C -2.7 °C 1027.7 hPa Calm     44 % 0.0 mm 14.0 W/m2 OVC
17:45 8.5 °C -3.1 °C 1028.0 hPa Calm     44 % 0.0 mm 11.0 W/m2 OVC
17:50 8.3 °C -3.0 °C 1028.0 hPa Calm     45 % 0.0 mm 7.0 W/m2 CLR
17:55 8.1 °C -2.9 °C 1028.0 hPa Calm     46 % 0.0 mm 5.0 W/m2 CLR
18:00 7.8 °C -2.8 °C 1028.0 hPa Calm     47 % 0.0 mm 0.0 W/m2 CLR
18:05 7.4 °C -2.9 °C 1028.0 hPa Calm     48 % 0.0 mm 0.0 W/m2 CLR
18:10 7.1 °C -2.9 °C 1028.0 hPa Calm     49 % 0.0 mm 0.0 W/m2 CLR
18:15 6.8 °C -3.2 °C 1028.0 hPa Calm     49 % 0.0 mm 0.0 W/m2 CLR
18:20 6.8 °C -3.2 °C 1028.0 hPa Calm     49 % 0.0 mm 0.0 W/m2 CLR
18:25 7.2 °C -3.1 °C 1028.0 hPa Calm     48 % 0.0 mm 0.0 W/m2 CLR
18:30 7.2 °C -3.3 °C 1028.3 hPa Calm     47 % 0.0 mm 0.0 W/m2 CLR
18:35 7.2 °C -3.4 °C 1028.0 hPa Calm     47 % 0.0 mm 0.0 W/m2 CLR
18:40 7.1 °C -3.2 °C 1028.0 hPa Calm     48 % 0.0 mm 0.0 W/m2 CLR
18:45 7.1 °C -3.2 °C 1028.0 hPa Calm     48 % 0.0 mm 0.0 W/m2 CLR
18:50 7.1 °C -3.4 °C 1028.0 hPa Calm     47 % 0.0 mm 0.0 W/m2 CLR
18:55 7.1 °C -2.6 °C 1028.0 hPa Calm     50 % 0.0 mm 0.0 W/m2 CLR
19:00 6.2 °C -2.9 °C 1028.0 hPa Calm     52 % 0.0 mm 0.0 W/m2 CLR
19:05 5.2 °C -3.1 °C 1028.0 hPa Calm     55 % 0.0 mm 0.0 W/m2 CLR
19:11 4.6 °C -3.0 °C 1028.0 hPa Calm     58 % 0.0 mm 0.0 W/m2 CLR
19:16 4.1 °C -2.9 °C 1028.0 hPa Calm     60 % 0.0 mm 0.0 W/m2 CLR
19:21 3.8 °C -3.0 °C 1028.0 hPa Calm     61 % 0.0 mm 0.0 W/m2 CLR
19:26 3.6 °C -3.2 °C 1028.0 hPa Calm     61 % 0.0 mm 0.0 W/m2 CLR
19:31 3.6 °C -3.1 °C 1028.3 hPa Calm     62 % 0.0 mm 0.0 W/m2 CLR
19:36 3.6 °C -3.1 °C 1028.3 hPa Calm     62 % 0.0 mm 0.0 W/m2 CLR
19:41 3.6 °C -3.0 °C 1028.3 hPa Calm     62 % 0.0 mm 0.0 W/m2 CLR
19:46 3.5 °C -3.1 °C 1028.3 hPa Calm     62 % 0.0 mm 0.0 W/m2 CLR
19:51 3.5 °C -2.9 °C 1028.3 hPa Calm     63 % 0.0 mm 0.0 W/m2 CLR
19:56 3.4 °C -3.0 °C 1028.0 hPa Calm     63 % 0.0 mm 0.0 W/m2 CLR
20:01 3.1 °C -3.1 °C 1028.0 hPa Calm     64 % 0.0 mm 0.0 W/m2 CLR
20:06 2.8 °C -3.1 °C 1028.0 hPa Calm     65 % 0.0 mm 0.0 W/m2 CLR
20:11 2.6 °C -3.1 °C 1028.3 hPa Calm     66 % 0.0 mm 0.0 W/m2 CLR
20:16 2.3 °C -3.2 °C 1028.3 hPa Calm     67 % 0.0 mm 0.0 W/m2 CLR
20:21 2.1 °C -3.1 °C 1028.3 hPa Calm     69 % 0.0 mm 0.0 W/m2 CLR
20:26 1.9 °C -2.9 °C 1028.3 hPa Calm     70 % 0.0 mm 0.0 W/m2 CLR
20:31 2.0 °C -2.9 °C 1028.3 hPa Calm     70 % 0.0 mm 0.0 W/m2 CLR
20:36 2.3 °C -2.4 °C 1028.3 hPa Calm     71 % 0.0 mm 0.0 W/m2 CLR
20:41 2.9 °C -1.8 °C 1028.3 hPa Calm     71 % 0.0 mm 0.0 W/m2 CLR
20:46 3.3 °C -2.1 °C 1028.3 hPa Calm     68 % 0.0 mm 0.0 W/m2 CLR
20:51 3.1 °C -2.4 °C 1028.3 hPa Calm     67 % 0.0 mm 0.0 W/m2 CLR
20:56 3.1 °C -1.8 °C 1028.3 hPa Calm     70 % 0.0 mm 0.0 W/m2 CLR
21:01 3.4 °C -1.2 °C 1028.3 hPa Calm     72 % 0.0 mm 0.0 W/m2 CLR
21:06 3.7 °C -0.9 °C 1028.7 hPa Calm     72 % 0.0 mm 0.0 W/m2 CLR
21:11 3.5 °C -2.1 °C 1028.7 hPa Calm     67 % 0.0 mm 0.0 W/m2 CLR
21:16 2.9 °C -2.4 °C 1028.3 hPa Calm     68 % 0.0 mm 0.0 W/m2 CLR
21:21 2.9 °C -1.1 °C 1028.7 hPa Calm     75 % 0.0 mm 0.0 W/m2 CLR
21:26 3.1 °C -1.3 °C 1028.7 hPa Calm     73 % 0.0 mm 0.0 W/m2 CLR
21:31 3.4 °C -0.6 °C 1028.3 hPa Calm     75 % 0.0 mm 0.0 W/m2 CLR
21:36 3.7 °C -0.1 °C 1028.7 hPa Calm     76 % 0.0 mm 0.0 W/m2 CLR
21:41 4.1 °C 0.2 °C 1028.7 hPa Calm     76 % 0.0 mm 0.0 W/m2 CLR
21:46 4.3 °C 0.4 °C 1028.7 hPa Calm     76 % 0.0 mm 0.0 W/m2 CLR
21:51 4.6 °C 0.7 °C 1028.7 hPa Calm     76 % 0.0 mm 0.0 W/m2 CLR
21:56 4.8 °C 0.9 °C 1028.7 hPa Calm     76 % 0.0 mm 0.0 W/m2 CLR
22:01 5.1 °C 1.2 °C 1028.7 hPa Calm     76 % 0.0 mm 0.0 W/m2 CLR
22:06 5.6 °C 1.8 °C 1028.7 hPa Calm     77 % 0.0 mm 0.0 W/m2 CLR
22:11 5.9 °C 2.0 °C 1028.7 hPa Calm     76 % 0.0 mm 0.0 W/m2 CLR
22:16 6.1 °C 1.9 °C 1028.3 hPa Calm     75 % 0.0 mm 0.0 W/m2 CLR
22:21 6.3 °C 2.2 °C 1028.3 hPa Calm     75 % 0.0 mm 0.0 W/m2 CLR
22:26 6.4 °C 1.9 °C 1028.3 hPa Calm     73 % 0.0 mm 0.0 W/m2 CLR
22:31 6.4 °C 1.9 °C 1028.3 hPa Calm     73 % 0.0 mm 0.0 W/m2 CLR
22:36 6.4 °C 1.9 °C 1028.7 hPa Calm     73 % 0.0 mm 0.0 W/m2 CLR
22:41 6.4 °C 1.9 °C 1028.7 hPa Calm     73 % 0.0 mm 0.0 W/m2 CLR
22:46 6.3 °C 2.2 °C 1028.7 hPa Calm     75 % 0.0 mm 0.0 W/m2 CLR
22:51 6.4 °C 2.3 °C 1028.7 hPa Calm     75 % 0.0 mm 0.0 W/m2 CLR
22:56 6.7 °C 2.6 °C 1028.7 hPa Calm     75 % 0.0 mm 0.0 W/m2 CLR
23:01 6.7 °C 2.6 °C 1028.3 hPa Calm     75 % 0.0 mm 0.0 W/m2 CLR
23:06 6.6 °C 2.5 °C 1028.3 hPa Calm     75 % 0.0 mm 0.0 W/m2 CLR
23:11 6.6 °C 2.6 °C 1028.7 hPa Calm     76 % 0.0 mm 0.0 W/m2 CLR
23:16 6.5 °C 2.6 °C 1028.7 hPa Calm     76 % 0.0 mm 0.0 W/m2 CLR
23:21 6.5 °C 2.6 °C 1028.7 hPa Calm     76 % 0.0 mm 0.0 W/m2 CLR
23:26 6.4 °C 2.5 °C 1028.7 hPa Calm     76 % 0.0 mm 0.0 W/m2 CLR
23:31 6.4 °C 2.8 °C 1028.7 hPa Calm     78 % 0.0 mm 0.0 W/m2 CLR
23:36 6.3 °C 2.6 °C 1028.7 hPa Calm     77 % 0.0 mm 0.0 W/m2 CLR
23:41 6.4 °C 3.1 °C 1028.7 hPa Calm     79 % 0.0 mm 0.0 W/m2 CLR
23:46 6.6 °C 3.0 °C 1028.7 hPa Calm     78 % 0.0 mm 0.0 W/m2 CLR
23:51 6.6 °C 3.1 °C 1028.7 hPa Calm     78 % 0.0 mm 0.0 W/m2 CLR
23:56 6.7 °C 3.2 °C 1028.7 hPa Calm     78 % 0.0 mm 0.0 W/m2 CLR
Lo Temps de Massalio
Compliments of Weather Underground - 1.25 mb